Flag for U.S.A. Weather past 2 weeks in West Covina, California, U.S.A.

Now
73 °F

Sunny.


Feels Like: 75 °F
Forecast: 68 / 87 °F
Wind: No wind

Location: Fullerton Municipal Airport

Current Time: Jul 2, 2015 at 10:03:21 AM

Latest Report: Jul 2, 2015 at 8:53 AM


Visibility: 9 mi

Pressure: 29.98 "Hg

Humidity: 74%

Dew point: 64 °F

Location of West CovinaLocation

Historic Weather in West Covina — Graph

°F

West Covina temperature yesterday

Maximum temperature yesterday: 87 °F (at 12:53 PM)
Minimum temperature yesterday: 71 °F (at 5:53 AM)
Average temperature yesterday: 77 °F

Past Weeks' High & Low Weather Summary

 TemperatureHumidityPressure
High94 °F (Jun 28, 2:53 PM)97% (Jun 19, 6:53 AM)30.01 "Hg (Jun 19, 6:53 AM)
Low60 °F (Jun 19, 5:53 AM)30% (Jun 30, 7:53 PM)29.77 "Hg (Jun 30, 7:53 PM)
Average74 °F64%29.89 "Hg
* Reported Jun 17 8:53 AM — Jul 2 8:53 AM, West Covina, Weather by CustomWeather, © 2015

Note: Actual official high and low records may vary slightly from our data, if they occured in-between our weather recording intervals... More about our weather records

Advertising

West Covina weather history for previous 24 hours

 ConditionsComfort  
Time TempWeatherWind HumidityBarometerVisibility
8:53 AM
Thu, Jul 2
73 °FSunny.No wind74%29.98 "Hg9 mi
7:53 AM72 °FSunny.6 mph78%29.97 "Hg9 mi
6:53 AM73 °FSunny.No wind74%29.95 "Hg10 mi
5:53 AM72 °FClear.5 mph76%29.94 "Hg10 mi
4:53 AM73 °FClear.No wind71%29.93 "Hg10 mi
3:53 AM72 °FClear.No wind73%29.93 "Hg10 mi
2:53 AM72 °FPassing clouds.No wind73%29.93 "Hg10 mi
1:53 AM72 °FPassing clouds.No wind73%29.93 "Hg10 mi
12:53 AM72 °FClear.No wind73%29.94 "Hg10 mi
11:53 PM
Wed, Jul 1
72 °FClear.No wind73%29.93 "Hg10 mi
10:53 PM72 °FClear.3 mph76%29.93 "Hg10 mi
9:53 PM72 °FClear.5 mph76%29.93 "Hg10 mi
8:53 PM71 °FSunny.3 mph78%29.92 "Hg10 mi
7:53 PM73 °FSunny.7 mph71%29.91 "Hg10 mi
6:53 PM76 °FSunny.9 mph62%29.89 "Hg10 mi
5:53 PM81 °FSunny.6 mph45%29.86 "Hg10 mi
4:53 PM81 °FSunny.7 mph47%29.86 "Hg10 mi
3:53 PM84 °FSunny.7 mph48%29.87 "Hg10 mi
2:53 PM82 °FSunny.7 mph53%29.89 "Hg10 mi
1:53 PM81 °FSunny.8 mph54%29.88 "Hg10 mi
12:53 PM87 °FSunny.8 mph43%29.87 "Hg10 mi
11:55 AM86 °FSunny.3 mph43%29.90 "Hg10 mi
11:53 AM86 °FSunny.No wind43%29.89 "Hg10 mi
10:53 AM84 °FSunny.No wind46%29.90 "Hg10 mi
Weather by CustomWeather, © 2015

See weather overviewHow to use our weather pages